カタログに戻る

COSMOS 2251 DEB

運用中LEO
NORAD 34793·DEBRIS·🇷🇺 Russia

打ち上げ Jun 16, 1993 から Plesetsk Cosmodrome

Loading…

次のパス (今後24時間)

TLE

最新Source: Space-Track

元期: Sep 14, 2026, 00:03 UTC

1 34793U 93036AAW 26257.00225531  .00000374  00000-0  12775-3 0  9996
2 34793  74.0006 101.6482 0051488 192.4107 318.5020 14.38994752912897

AllMySatでCOSMOS 2251 DEBをリアルタイム追跡

Download on the App Store